Tracking 22779 objects as of 12-Apr-2021
HD Live streaming from Space Station
objects crossing your sky now

STARLINK-1629

Track STARLINK-1629 now!
10-day predictions
STARLINK-1629 is classified as:


NORAD ID: 46150
Int'l Code: 2020-057AK
Perigee: 552.5 km
Apogee: 566.7 km
Inclination: 53.1 °
Period: 95.7 minutes
Semi major axis: 6930 km
RCS: Unknown
Launch date: August 18, 2020
Source: United States (US)
Launch site: AIR FORCE EASTERN TEST RANGE (AFETR)
aabbcc
Your satellite tracking list
Your tracking list is empty




NASA's NSSDC Master Catalog

Two Line Element Set (TLE):
1 46150U 20057AK  21101.36331719 -.00221214  00000-0 -15999-1 0  9996
2 46150  53.0581  87.1909 0010272 353.5261   6.5593 15.04684604 35779
Source of the keplerian elements: AFSPC